Vorticity
nan nan nan nan nan nan nan nan nan nan nan nan nan nan nan nan nan nan nan nan nan nan nan nan nan nan nan nan nan nan nan nan nan nan nan nan nan nan nan nan nan nan nan nan nan nan nan nan nan
nan -0 4 8 8 6 7 8 8 9 10 6 5 6 4 7 10 13 8 5 3 3 6 9 5 4 6 5 4 4 5 5 4 3 4 4 4 4 5 6 6 6 7 7 5 5 3 2 nan
nan 4 8 6 6 7 6 10 10 9 3 3 3 7 9 6 12 6 8 8 3 5 7 9 5 6 6 5 5 5 5 6 4 4 3 4 4 4 5 6 6 6 5 5 5 5 4 4 nan
nan 5 7 6 6 6 8 11 10 4 0 9 5 5 7 10 12 10 9 3 4 4 6 6 6 4 5 7 6 4 5 7 5 4 3 5 4 4 5 6 6 5 5 5 6 5 5 6 nan
nan 7 5 5 7 7 11 12 7 2 6 6 7 5 5 12 15 11 3 4 4 3 7 6 6 5 5 8 5 4 6 7 7 5 4 4 4 5 5 6 6 6 5 6 8 6 7 7 nan
nan 7 6 6 7 6 12 10 2 4 8 4 8 7 7 14 10 3 5 5 4 4 4 5 5 7 8 7 6 5 6 8 8 5 5 5 5 5 4 6 6 6 6 7 7 8 8 6 nan
nan 7 8 8 8 8 12 8 4 6 7 10 3 2 11 9 4 6 5 5 4 3 4 5 5 4 6 6 7 5 8 10 7 6 6 6 5 4 4 6 7 6 8 8 7 8 8 7 nan
nan 7 7 7 7 11 9 4 7 7 9 8 5 8 12 12 5 5 5 4 4 3 4 5 6 5 5 5 5 6 10 9 5 7 7 5 4 3 5 5 6 7 8 8 7 8 7 8 nan
nan 5 7 10 8 9 8 2 5 11 8 2 9 12 19 15 4 4 4 4 4 4 4 5 6 6 7 7 4 7 8 5 5 5 6 6 4 3 3 4 6 8 8 7 7 7 8 10 nan
nan 8 8 9 9 11 8 7 8 9 2 4 5 15 19 7 4 3 3 3 4 4 3 4 6 6 8 7 6 7 5 3 5 5 5 6 5 6 6 5 6 7 7 8 8 8 12 13 nan
nan 10 7 8 13 12 6 7 9 8 5 8 14 14 7 3 3 4 4 5 5 4 5 5 6 7 8 7 7 8 6 6 5 4 6 6 6 7 8 8 7 5 9 9 7 10 9 7 nan
nan 7 9 11 12 12 10 5 6 2 10 21 21 9 5 4 4 4 4 6 7 5 5 5 7 8 7 7 8 8 7 8 6 4 6 8 7 6 7 7 7 8 7 6 10 7 5 8 nan
nan 8 9 10 9 9 8 4 4 7 14 19 11 7 6 5 4 4 5 7 7 6 4 5 7 7 7 8 8 7 8 8 6 5 6 8 8 8 7 7 8 7 7 8 7 7 7 7 nan
nan 10 6 7 7 7 6 6 4 13 14 9 6 6 6 5 4 3 6 8 7 6 6 5 7 6 7 7 8 8 8 6 5 5 5 8 9 7 8 8 8 8 8 8 9 7 7 8 nan
nan 6 6 8 6 8 6 5 12 14 10 5 5 5 6 6 6 6 7 7 7 7 6 6 6 6 7 7 7 8 8 6 5 5 5 7 8 8 9 9 8 8 8 9 8 8 8 8 nan
nan 5 7 8 7 6 5 9 17 12 6 4 4 5 7 9 6 7 10 10 8 8 6 6 6 7 6 7 8 9 7 6 5 7 6 6 7 9 9 8 7 9 9 9 8 7 8 10 nan
nan 8 7 7 11 6 7 4 14 12 6 5 5 6 6 6 7 12 11 11 9 7 7 7 6 6 6 6 7 8 6 4 6 7 7 7 8 9 10 9 8 9 10 8 7 7 8 8 nan
nan 10 8 10 11 6 6 2 7 13 7 5 5 5 6 7 8 8 9 10 9 7 7 7 6 6 6 7 7 5 5 5 6 7 6 8 9 8 10 9 9 10 8 8 8 8 8 9 nan
nan 6 5 10 11 9 7 8 9 10 5 6 6 6 6 6 9 10 10 8 7 7 7 7 6 6 7 8 9 7 6 7 6 5 6 7 7 9 10 9 8 8 8 8 9 9 9 9 nan
nan 5 8 7 13 9 7 13 17 14 10 9 5 4 5 7 8 9 8 7 7 6 6 7 6 6 8 9 10 9 8 7 6 6 5 6 7 8 9 9 9 9 9 8 8 9 10 8 nan
nan 11 8 8 9 7 6 14 13 13 13 11 10 9 10 8 6 7 7 6 7 7 7 6 6 6 7 9 10 10 9 8 6 6 5 5 6 8 9 9 9 9 10 9 8 8 8 10 nan
nan 13 14 15 6 8 9 10 11 13 15 13 11 9 9 7 7 9 8 7 6 6 7 7 6 6 7 9 8 8 9 8 9 7 5 5 6 8 8 9 9 10 10 9 9 9 10 9 nan
nan 13 19 16 10 9 9 8 8 8 14 20 18 10 9 10 11 10 8 7 8 7 6 6 6 6 7 8 8 8 8 9 8 6 6 9 8 9 9 9 9 10 9 8 8 7 11 11 nan
nan 7 10 11 10 6 9 9 6 6 10 12 21 19 10 11 12 10 10 8 7 7 7 7 5 6 7 8 8 8 7 9 9 9 10 9 10 8 7 9 10 9 8 10 9 9 10 10 nan
nan 9 11 8 9 8 10 7 7 7 11 13 18 21 14 13 11 9 7 6 7 7 6 6 6 6 7 8 8 8 8 8 9 9 9 9 10 8 7 9 10 9 9 10 11 11 12 10 nan
nan 12 8 6 9 11 11 9 9 8 7 18 26 20 15 11 10 10 7 7 7 6 6 7 6 6 7 7 9 8 9 9 7 8 9 10 9 7 8 10 8 8 10 11 13 13 9 10 nan
nan 8 10 13 8 8 6 12 6 1 4 11 20 20 14 11 12 9 7 8 7 7 7 7 6 6 7 8 8 8 8 8 7 8 10 9 9 9 9 9 9 9 9 11 13 12 8 10 nan
nan 7 7 11 9 10 10 11 4 1 7 10 12 13 12 12 11 8 8 7 7 8 8 7 7 7 8 8 8 8 8 8 8 6 7 10 10 9 9 9 9 9 9 10 12 12 10 11 nan
nan 5 9 9 10 9 10 10 8 4 8 14 13 13 12 11 9 7 7 7 8 8 8 7 7 7 7 8 8 8 8 8 8 7 8 10 10 9 9 9 9 8 9 11 11 10 10 12 nan
nan nan nan nan nan nan nan nan nan nan nan nan nan nan nan nan nan nan nan nan nan nan nan nan nan nan nan nan nan nan nan nan nan nan nan nan nan nan nan nan nan nan nan nan nan nan nan nan nan
CAPE
0 0 0 0 0 0 0 0 0 0 0 0 0 0 0 0 0 0 0 0 0 0 0 0 1 6 4 5 6 7 9 10 11 11 11 12 14 14 10 8 9 9 12 12 10 11 13 10 9
0 0 0 0 0 0 0 0 0 0 0 0 0 0 0 0 0 0 0 0 0 0 0 0 0 1 2 1 4 3 2 4 8 9 10 12 12 8 7 6 7 10 12 12 15 15 13 10 8
0 0 0 0 0 0 0 0 0 0 0 0 0 0 0 0 0 0 0 0 0 0 0 0 0 0 0 0 1 1 0 1 3 5 5 6 9 6 6 3 7 8 14 16 16 14 12 9 7
0 0 0 0 0 0 0 0 0 0 0 0 0 0 0 0 0 0 0 0 0 0 0 0 0 0 0 0 0 0 0 0 1 5 3 3 6 5 4 2 6 8 8 6 10 12 8 6 5
0 0 0 0 0 0 0 0 0 0 0 0 0 0 0 0 0 0 0 0 0 0 0 0 0 0 0 0 0 0 0 0 0 3 0 1 1 3 2 1 5 9 10 8 10 7 7 7 3
0 0 0 0 0 0 0 0 0 0 0 0 0 0 0 0 0 0 0 0 0 0 0 0 0 0 0 0 0 0 0 0 0 1 0 0 0 1 0 2 3 7 5 5 8 8 10 10 8
0 0 0 0 0 0 0 0 0 0 0 0 0 0 0 0 0 0 0 0 0 0 0 0 0 0 0 0 0 0 0 0 0 0 0 0 0 0 0 0 1 4 3 4 8 7 10 10 10
0 0 0 0 0 0 0 0 0 0 0 0 0 0 0 0 0 0 0 0 0 0 0 0 0 0 0 0 0 0 0 0 0 0 0 0 0 0 0 0 0 1 1 5 4 7 7 9 7
0 0 0 0 0 0 0 0 0 0 0 0 0 0 0 0 0 0 0 0 0 0 0 0 0 0 0 0 0 0 0 0 0 0 0 0 0 0 0 0 0 0 0 2 1 3 6 7 0
0 0 0 0 0 0 0 0 0 0 0 0 0 0 0 0 0 0 0 0 0 0 0 0 0 0 0 0 0 0 0 0 0 0 0 0 0 0 0 0 0 0 0 0 0 0 1 0 0
0 0 0 0 0 0 0 0 0 0 0 0 0 0 0 0 0 0 0 0 0 0 0 0 0 0 0 0 0 0 0 0 0 0 0 0 0 0 0 0 0 0 0 0 0 0 0 1 3
0 0 0 0 0 0 0 0 0 0 0 0 0 0 0 0 0 0 0 0 0 0 0 0 0 0 0 0 0 0 0 0 0 0 0 0 0 0 0 0 0 0 0 0 2 3 7 8 8
0 0 0 0 0 0 0 0 0 0 0 0 0 0 0 0 0 0 0 0 0 0 0 0 0 0 0 0 0 0 0 0 0 0 0 0 0 0 0 0 0 1 0 4 6 6 1 4 6
0 0 0 0 0 0 0 0 0 0 0 0 0 0 0 0 0 0 0 0 0 0 0 0 0 0 0 0 0 0 0 0 0 0 0 0 0 0 0 0 0 1 4 8 9 9 6 6 9
0 0 0 0 0 0 0 0 0 0 0 0 0 0 0 0 0 0 0 0 0 0 0 0 0 0 0 0 0 0 0 0 0 0 0 0 0 1 1 0 2 4 8 7 4 4 8 5 15
0 0 0 0 0 0 0 0 0 0 0 0 0 0 0 0 0 0 0 0 0 0 0 0 0 0 0 0 0 0 0 0 0 0 0 0 0 1 1 2 2 10 7 5 6 7 11 11 7
0 0 0 0 0 0 0 0 0 0 0 0 0 0 0 0 0 0 0 0 0 0 0 0 0 0 0 0 0 0 0 0 0 0 0 0 0 0 3 2 5 7 6 5 8 10 9 4 4
0 0 0 0 0 0 0 0 0 0 0 0 0 0 0 0 0 0 0 0 0 0 0 0 0 0 0 0 0 0 0 0 0 0 0 0 0 0 1 3 8 9 7 4 7 8 9 9 5
0 0 0 0 0 0 0 0 0 0 0 0 0 0 0 0 0 0 0 0 0 0 0 0 0 0 0 0 0 0 0 0 0 0 0 0 0 0 3 4 8 6 10 8 4 12 17 11 5
0 0 0 0 0 0 0 0 0 0 0 0 0 0 0 0 0 0 0 0 0 0 0 0 0 0 0 0 0 0 0 0 0 0 0 0 0 0 2 7 12 15 11 7 6 10 28 12 9
0 0 0 0 0 0 0 0 0 0 0 0 0 0 0 0 0 0 0 0 0 0 0 0 0 0 0 0 0 0 0 0 0 0 0 0 0 0 1 8 13 17 14 5 11 21 29 33 18
0 0 0 0 0 0 0 0 0 0 0 0 0 0 0 0 0 0 0 0 0 0 0 0 0 0 0 0 0 0 0 0 0 0 0 0 0 0 0 5 10 14 18 4 11 9 36 30 27
0 0 0 0 0 0 0 0 0 0 0 0 0 0 0 0 0 0 0 0 0 0 0 0 0 0 0 0 0 0 0 0 0 0 0 0 0 0 0 2 7 10 15 12 14 22 37 43 31
0 0 0 0 0 2 0 0 0 0 0 0 0 0 0 0 0 0 0 0 0 0 0 0 0 0 0 0 0 0 0 0 0 0 0 0 0 0 0 1 7 11 16 10 15 20 35 27 24
3 42 75 69 71 65 0 0 0 0 0 0 0 0 0 0 0 0 0 0 0 0 0 0 0 0 0 0 0 0 0 0 0 0 0 0 0 0 0 3 5 4 11 7 14 26 26 28 29
26 61 54 40 0 7 0 0 1 0 0 0 0 0 0 0 0 0 0 0 0 0 0 0 0 0 0 0 0 0 0 0 0 0 0 0 0 0 1 3 2 5 12 10 13 18 22 22 23
5 36 0 1 0 0 0 0 0 0 0 0 0 0 0 0 0 0 0 0 0 0 0 0 0 0 0 0 0 0 0 0 0 0 0 0 0 0 0 0 3 7 10 7 13 18 18 23 19
59 0 7 10 6 0 0 0 1 0 0 0 0 0 0 0 0 0 0 0 0 0 0 0 0 0 0 0 0 0 0 0 0 0 0 0 0 0 0 0 1 8 11 9 14 19 19 18 15
33 0 0 5 4 1 0 13 0 0 0 0 0 0 0 0 0 0 0 0 0 0 0 0 0 0 0 0 0 0 0 0 0 0 0 0 0 0 0 0 1 8 10 8 15 20 15 15 18
0 0 0 73 1 2 1 1 0 0 0 0 0 0 0 0 0 0 0 0 0 0 0 0 0 0 0 0 0 0 0 0 0 0 0 0 0 0 0 0 2 5 9 12 20 13 14 20 19